This is the latest recevied weather packets stored in our database for station/object S56WDN-10. If no packets are shown the sender has not sent any weather packets the latest 10 day(s).
| Time | Temp. | Humidity | Pressure | Rain* | Wind** | Luminosity | Snow |
|---|---|---|---|---|---|---|---|
| 1777990617 | 17.78° C | 58% | 1012.8 hPa | 0 mm | - | - | - |
| 1777990017 | 17.78° C | 58% | 1012.7 hPa | 0 mm | - | - | - |
| 1777989717 | 17.78° C | 57% | 1012.7 hPa | 0 mm | - | - | - |
| 1777989417 | 18.33° C | 57% | 1012.8 hPa | 0 mm | - | - | - |
| 1777989117 | 18.33° C | 56% | 1013 hPa | 0 mm | - | - | - |
| 1777988817 | 18.33° C | 56% | 1012.9 hPa | 0 mm | - | - | - |
| 1777988517 | 18.89° C | 55% | 1012.9 hPa | 0 mm | - | - | - |
| 1777988217 | 18.89° C | 55% | 1012.9 hPa | 0 mm | - | - | - |
| 1777987917 | 19.44° C | 54% | 1013 hPa | 0 mm | - | - | - |
| 1777987618 | 19.44° C | 54% | 1013 hPa | 0 mm | - | - | - |
| 1777987317 | 20° C | 53% | 1013 hPa | 0 mm | - | - | - |
| 1777987017 | 20° C | 53% | 1013 hPa | 0 mm | - | - | - |
| 1777986717 | 20° C | 55% | 1013.2 hPa | 0 mm | - | - | - |
| 1777986417 | 19.44° C | 55% | 1013.2 hPa | 0 mm | - | - | - |
| 1777986118 | 18.89° C | 56% | 1013.1 hPa | 0 mm | - | - | - |
| 1777985817 | 18.89° C | 57% | 1013.2 hPa | 0 mm | - | - | - |
| 1777985517 | 18.33° C | 57% | 1013.5 hPa | 0 mm | - | - | - |
| 1777985218 | 18.33° C | 57% | 1013.4 hPa | 0 mm | - | - | - |
| 1777984918 | 18.33° C | 57% | 1013.5 hPa | 0 mm | - | - | - |
| 1777984618 | 18.33° C | 56% | 1013.5 hPa | 0 mm | - | - | - |
| 1777984318 | 18.89° C | 55% | 1013.4 hPa | 0 mm | - | - | - |
| 1777984018 | 18.89° C | 54% | 1013.4 hPa | 0 mm | - | - | - |
| 1777983718 | 18.89° C | 54% | 1013.5 hPa | 0 mm | - | - | - |
| 1777983418 | 18.89° C | 53% | 1013.6 hPa | 0 mm | - | - | - |
| 1777983118 | 18.89° C | 53% | 1013.5 hPa | 0 mm | - | - | - |
* Rain latest hour (hover to see other rain measurements)
** Current wind speed in m/s (hover to see current wind gust speed)